EHI
0 0 0 0 0 1 1 1 1 2 2 1 0 0 0 0 0 0 0 0 0 0 0 0 0 2 6 8 7 6 4 3 3 2 2 2 1 0 0 0 0 0 0
0 0 0 0 0 0 0 0 1 1 1 0 0 0 0 0 0 0 0 0 0 0 0 0 0 1 3 4 5 5 4 3 2 2 2 2 1 0 0 0 0 0 0
0 0 0 0 0 0 0 0 0 0 0 0 0 0 0 0 0 0 0 0 0 0 0 0 0 0 0 1 3 4 3 1 1 2 3 2 1 0 0 0 0 0 0
0 0 0 0 0 0 0 0 0 0 0 0 0 0 0 0 0 0 0 0 0 0 0 0 0 0 0 0 1 2 1 0 1 2 4 4 3 1 0 0 0 0 0
0 0 0 0 0 0 0 0 0 0 0 0 0 0 0 0 0 0 0 0 0 0 0 0 0 0 0 0 0 0 0 0 1 2 3 4 3 2 1 0 0 0 0
0 0 0 0 0 0 0 0 0 0 0 0 0 0 0 0 0 0 0 0 0 0 0 0 0 0 0 0 0 0 0 0 0 1 3 3 2 2 1 0 0 0 0
0 0 0 0 0 0 0 0 0 0 0 0 0 0 0 0 0 0 0 0 0 0 0 0 0 0 0 0 0 0 0 0 0 0 1 2 2 1 0 0 0 0 0
0 0 0 0 0 0 0 0 0 0 0 0 0 0 0 0 0 0 0 0 0 0 0 0 0 0 0 0 0 0 0 0 0 0 0 1 1 0 0 0 0 0 0
0 0 0 0 0 0 0 0 0 0 0 0 0 0 0 0 0 0 0 0 0 0 0 0 0 0 0 0 0 0 0 0 0 0 0 0 0 0 0 0 0 0 0
0 0 0 0 0 0 0 0 0 0 0 0 0 0 0 0 0 0 0 0 0 0 0 0 0 0 0 0 0 0 0 0 0 0 0 0 0 0 0 0 0 0 0
0 0 0 0 0 0 0 0 0 0 0 0 0 0 0 0 0 0 0 0 0 0 0 0 0 0 0 0 0 0 0 0 0 0 0 0 0 0 0 0 0 0 0
0 0 0 0 0 0 0 0 0 0 0 0 0 0 0 0 0 0 0 0 0 0 0 0 0 0 0 0 0 0 0 0 0 0 0 0 0 0 0 0 0 0 0
0 0 0 0 0 0 0 0 0 0 0 0 0 0 0 0 0 0 0 0 0 0 0 0 0 0 0 0 0 0 0 0 0 0 0 0 0 0 0 0 0 0 0
0 0 0 0 0 0 0 0 0 0 0 0 0 0 0 0 0 0 0 0 0 0 0 0 0 0 0 0 0 0 0 0 0 0 0 0 0 0 0 0 0 0 0
0 0 0 0 0 0 0 0 0 0 0 0 0 0 0 0 0 0 0 0 0 0 0 0 0 0 0 0 0 0 0 0 0 0 0 0 0 0 0 0 0 0 0
0 0 0 0 0 0 0 0 0 0 0 0 0 0 0 0 0 0 0 0 0 0 0 0 0 0 0 0 0 0 0 0 0 0 0 0 0 0 0 0 0 0 0
0 0 0 0 0 0 0 0 0 0 0 0 0 0 0 0 0 0 0 0 0 0 0 0 0 0 0 0 0 0 0 0 0 0 0 0 0 0 0 0 0 0 0
0 0 0 0 0 0 0 0 0 0 0 0 0 0 0 0 0 0 0 0 0 0 0 0 0 0 0 0 0 0 0 0 0 0 0 0 0 0 0 0 0 0 0
0 0 0 0 0 0 0 0 0 0 0 0 0 0 0 0 0 0 0 0 0 0 0 0 0 0 0 0 0 0 0 0 0 0 0 0 0 0 0 0 0 0 0
0 0 0 0 0 0 0 0 0 0 0 0 0 0 0 0 0 0 0 0 0 0 0 0 0 0 0 0 0 0 0 0 0 0 0 0 0 0 0 0 0 0 0
0 0 0 0 0 0 0 0 0 0 0 0 0 0 0 0 0 0 0 0 0 0 0 0 0 0 0 0 0 0 0 0 0 0 0 0 0 0 0 0 0 0 0
0 0 0 0 0 0 0 0 0 0 0 0 0 0 0 0 0 0 0 0 0 0 0 0 0 0 0 0 0 0 0 0 0 0 0 0 0 0 0 0 0 0 0
0 0 0 0 0 0 0 0 0 0 0 0 0 0 0 0 0 0 0 0 0 0 0 0 0 0 0 0 0 0 0 0 0 0 0 0 0 0 0 0 0 0 0
0 0 0 0 0 0 0 0 0 0 0 0 0 0 0 0 0 0 0 0 0 0 0 0 0 0 0 0 0 0 0 0 0 0 0 0 0 0 0 0 0 0 0
0 0 0 0 0 0 0 0 0 0 0 0 0 0 0 0 0 0 0 0 0 0 0 0 0 0 0 0 0 0 0 0 0 0 0 0 0 0 0 0 0 0 0
0 0 0 0 0 0 0 0 0 0 0 0 0 0 0 0 0 0 0 0 0 0 0 0 0 0 0 0 0 0 0 0 0 0 0 0 0 0 0 0 0 0 0
Wind_Speed
13 13 13 13 13 13 13 13 12 12 11 11 11 10 9 9 8 7 7 6 7 7 7 7 8 8 6 6 6 7 7 7 7 5 3 3 4 3 4 3 4 4 6
14 14 14 14 14 14 15 14 14 14 13 14 13 13 12 11 10 10 10 9 8 9 8 8 8 7 8 7 6 8 7 7 8 8 5 5 5 5 5 4 4 4 6
16 16 16 16 15 15 16 15 14 14 14 15 14 14 14 13 12 11 11 10 10 9 9 9 8 8 9 7 8 8 7 7 8 7 7 4 4 5 6 5 6 5 6
17 17 17 17 17 16 16 15 15 15 15 15 15 15 15 15 14 13 12 11 11 10 10 9 9 9 10 9 8 8 7 7 7 8 7 6 5 7 6 6 5 5 5
17 18 18 17 17 17 16 16 16 15 15 15 15 15 15 14 14 14 13 13 12 12 11 11 11 10 8 7 7 7 7 7 7 7 8 7 7 7 8 6 7 6 5
18 18 18 17 17 17 17 17 16 15 15 14 15 15 16 14 12 13 13 13 11 12 12 11 11 11 11 11 10 9 9 9 9 8 8 9 9 10 8 8 8 7 5
17 18 17 17 17 16 17 17 16 15 14 14 14 15 15 15 11 13 14 13 13 12 12 11 10 10 12 12 13 14 13 14 12 10 10 10 9 10 11 12 11 9 6
17 17 17 16 16 16 16 16 15 13 13 12 13 14 13 13 12 14 15 15 14 13 13 12 12 11 10 10 11 11 12 13 13 13 12 11 9 7 10 11 10 8 8
17 17 16 16 16 16 16 15 13 12 12 11 11 12 13 12 12 14 15 13 13 15 14 13 13 13 9 8 11 11 11 11 11 12 12 10 7 5 6 8 10 10 8
17 17 16 16 16 16 15 15 13 12 12 11 11 11 12 12 11 14 16 11 12 12 12 12 12 12 8 12 12 12 12 11 10 10 11 11 10 10 11 11 11 12 10
16 16 16 15 15 15 14 12 11 10 11 11 11 10 11 11 10 13 15 11 11 11 10 10 10 14 11 12 12 11 9 8 9 9 9 9 9 9 11 10 10 11 11
16 16 15 14 13 12 12 12 11 10 10 10 9 9 8 8 9 12 15 15 11 10 9 9 7 13 14 13 11 9 6 6 8 8 8 8 8 9 9 10 9 7 6
15 15 14 14 12 11 11 10 9 8 7 6 6 7 7 6 7 11 14 14 13 10 8 4 3 10 11 11 12 10 9 9 9 9 8 8 7 8 9 8 8 7 7
15 14 13 12 12 10 8 7 7 6 6 5 5 6 5 5 6 7 9 10 12 12 10 7 9 9 8 7 8 11 10 9 9 9 7 6 6 8 9 9 10 10 9
14 13 12 11 10 9 8 6 6 5 4 5 4 4 4 4 3 4 5 7 7 8 8 8 8 9 10 10 9 9 9 9 9 9 7 7 7 8 9 10 10 10 9
12 11 9 9 8 7 7 5 3 5 4 4 5 4 3 1 2 3 4 4 4 5 7 8 8 9 9 9 9 9 9 9 9 8 8 7 8 9 10 10 10 11 11
12 11 9 8 7 7 6 6 4 1 2 1 2 2 2 0 3 4 4 5 5 7 8 8 8 8 8 8 8 8 8 8 8 8 8 8 8 9 11 11 11 10 11
12 11 9 7 7 7 6 5 4 3 1 1 2 2 1 2 4 5 7 7 5 7 8 7 7 7 7 6 7 7 6 7 7 7 8 9 9 10 11 11 11 13 12
11 8 8 7 6 6 6 5 3 3 1 1 3 4 4 5 5 5 7 6 6 6 6 6 5 5 5 5 5 6 6 6 7 7 8 9 10 11 11 11 11 14 13
9 9 10 7 6 6 5 4 3 2 2 1 2 3 4 4 4 5 6 5 4 5 5 4 4 4 4 4 4 4 5 5 6 7 8 8 9 10 12 13 13 13 11
9 8 9 7 5 5 5 4 3 3 2 2 2 4 2 2 3 4 4 4 3 4 3 3 3 3 3 3 3 4 5 5 5 7 8 9 10 10 11 11 13 12 12
8 7 7 6 5 5 5 4 3 3 3 4 3 4 1 2 1 2 3 3 3 2 2 2 3 2 3 3 3 4 5 5 6 8 9 10 10 11 11 12 12 12 12
8 8 7 6 5 3 3 3 3 3 3 3 3 2 2 1 1 1 1 2 2 2 3 3 3 3 2 3 3 3 4 6 7 9 10 11 11 11 12 13 14 14 14
8 8 7 6 5 4 4 3 3 4 4 3 3 2 2 2 1 1 1 1 1 1 3 4 4 5 6 4 3 4 5 6 8 9 12 12 12 11 11 13 14 16 15
7 7 6 5 5 4 4 4 4 4 4 4 3 3 2 1 1 1 1 1 2 2 4 5 5 6 7 7 7 8 8 7 7 9 10 11 13 13 13 14 13 14 14
7 7 6 5 4 4 4 4 4 4 4 3 3 2 2 2 2 2 2 2 2 3 4 5 7 8 9 8 11 10 8 7 7 6 9 11 12 12 13 12 16 14 16
Wind_Direction
295 293 289 285 280 274 267 265 263 260 257 250 245 242 238 234 229 227 237 238 242 249 251 250 250 249 243 238 233 229 227 234 242 235 207 170 176 180 142 130 121 110 96
301 296 290 287 283 279 275 271 267 262 257 251 247 243 242 238 232 230 233 231 230 235 237 240 245 247 244 244 239 233 226 227 238 239 220 198 187 171 152 143 128 110 100
303 299 294 289 285 282 279 275 270 265 260 257 251 246 243 241 236 233 235 235 233 233 231 230 236 238 241 239 237 238 231 223 229 237 229 210 183 164 151 139 125 117 110
303 299 295 292 288 285 282 279 273 267 262 256 250 246 243 241 237 233 232 233 235 234 233 231 230 233 234 238 237 238 240 238 228 232 231 212 190 171 166 157 146 141 127
302 297 295 293 290 287 283 279 274 269 265 259 252 247 242 238 235 232 232 232 232 234 232 229 229 228 233 235 245 241 236 235 233 231 228 217 199 180 183 174 156 141 124
300 297 296 295 292 289 286 281 276 270 266 263 257 250 243 239 225 214 228 238 234 235 236 232 229 217 219 220 235 245 248 243 237 236 235 226 210 197 184 173 159 159 153
300 299 297 295 292 292 289 285 280 274 268 261 255 251 249 244 222 201 210 234 238 235 235 233 235 225 208 219 218 223 233 238 242 248 249 243 225 203 188 181 181 181 157
302 300 299 297 294 291 288 284 282 278 272 267 262 255 250 243 213 202 203 224 237 236 234 233 235 241 225 221 228 229 233 229 226 231 242 247 247 224 197 190 174 149 126
304 303 302 300 296 292 288 284 281 277 271 264 258 254 251 244 213 200 200 224 229 232 232 232 232 234 218 200 229 237 239 239 227 225 236 246 255 239 199 173 161 154 145
307 307 304 301 297 293 289 285 280 276 271 267 258 249 247 243 216 199 201 223 226 226 225 229 225 232 212 190 225 235 238 239 237 219 218 224 225 211 193 186 175 169 154
310 307 304 302 298 293 287 284 280 275 272 266 261 251 243 241 217 198 198 222 225 225 226 225 220 195 203 198 222 241 245 254 244 237 225 216 208 201 196 192 189 180 171
311 307 305 304 300 297 294 289 283 277 270 262 255 251 239 230 223 198 195 215 236 231 230 231 217 176 191 200 215 234 239 247 248 237 226 214 205 196 191 187 185 185 178
312 309 308 305 301 298 293 291 288 279 267 259 251 246 238 224 206 192 193 207 223 235 237 231 160 164 181 201 219 221 221 230 236 232 224 216 206 190 177 167 158 143 129
312 310 309 307 304 302 295 289 287 285 276 267 258 252 243 225 209 194 195 198 207 220 228 196 172 178 214 237 204 204 220 229 230 229 221 212 194 179 171 160 153 145 137
313 310 310 307 306 306 303 295 293 288 286 279 276 267 258 241 210 195 208 207 207 209 210 209 211 205 208 215 220 219 217 217 220 223 211 201 192 179 167 160 156 153 148
315 315 314 311 312 314 313 310 277 272 288 268 264 282 299 42 133 168 198 206 195 187 210 216 216 216 217 218 218 215 214 218 217 210 201 193 189 175 162 159 160 158 152
316 317 315 315 318 321 322 321 322 247 218 253 253 251 271 225 161 173 175 169 173 180 214 226 224 222 221 223 224 223 218 216 210 204 195 186 181 170 161 159 160 156 152
320 318 316 317 321 323 326 327 332 340 8 139 132 122 158 173 176 173 164 163 174 205 224 225 225 223 221 225 224 220 221 218 208 198 189 179 172 166 161 159 160 157 153
324 326 325 324 324 326 330 335 343 353 8 122 133 121 122 135 145 161 179 207 197 203 219 227 223 223 224 223 220 215 214 212 199 187 178 171 166 161 157 156 155 154 153
323 323 321 324 327 332 339 344 356 9 26 75 104 122 150 168 164 167 200 219 213 210 212 219 224 225 226 220 209 202 202 195 183 178 170 165 160 156 153 154 154 156 159
324 326 320 326 338 344 347 354 6 16 44 75 81 80 34 200 177 182 195 206 216 218 212 217 220 216 208 205 198 194 191 182 173 164 156 155 153 151 150 152 154 157 159
324 329 338 346 349 357 353 6 21 32 49 74 98 123 169 227 188 194 195 194 207 221 220 219 212 199 192 191 181 182 173 164 160 152 151 150 148 148 149 152 155 157 154
328 335 346 353 360 356 347 21 39 49 60 78 90 108 148 156 175 196 210 204 193 188 184 183 186 182 165 154 159 165 156 147 146 147 144 144 147 150 152 153 154 154 156
332 339 351 354 0 7 17 32 46 56 63 71 80 83 91 113 148 157 188 181 156 155 158 159 161 152 148 150 147 143 136 134 138 141 142 144 146 148 149 151 154 157 158
340 345 352 359 6 15 20 30 42 50 59 65 70 71 76 90 104 117 123 133 132 122 121 128 139 142 146 146 133 121 114 121 133 138 144 143 143 146 150 153 153 155 156
348 353 354 1 12 27 36 41 48 52 59 71 76 71 62 68 73 85 106 118 130 131 128 124 128 132 133 129 121 113 112 113 123 141 147 142 145 148 150 150 151 154 155